Location: Newton_East
(35.6670°N, 81.2000°W)
Time: 05:58:42
(UTC-04:00)

ISS - Visible Passes

Search period start: 20 September 2014 00:00
Search period end: 30 September 2014 00:00
Orbit: 413 x 417 km, 51.6° (Epoch: 20 September)

Date Brightness Start Highest point End Pass type
(mag) Time Alt. Az. Time Alt. Az. Time Alt. Az.
26 Sep -0.5 06:27:50 10° N 06:29:55 15° NNE 06:31:59 10° ENE visible
27 Sep -0.2 05:39:40 10° N 05:40:35 11° NNE 05:41:29 10° NE visible
28 Sep -1.7 06:25:36 10° NNW 06:28:40 33° NE 06:31:43 10° ESE visible
29 Sep -0.9 05:37:41 15° N 05:39:23 21° NNE 05:41:58 10° E visible
